Nicolás Vega

Recruteur - Chaco For Ever
20 Févr 2028
Dimanche
Processus

Personnalité

Adaptabilité (18) Ambition (1) Controverse (9) Loyauté (10) Pression (7) Professionnalisme (15) Sportivité (13) Tempérament (16)

Profil

Style d'entraînement Démocratique
Diplôme Continental B
Détermination 7
Gestion des joueurs 3
Motivation 6
Discipline 5
Satisfaction professionnelle
100%
Fatigue
0%
Rôle Recruteur
Salaire 25.3K p/s
Contrat 14.03.2029

Performance

Comportement Bon
Efficacité de l'entraînement
21%
Développement des joueurs
5%
Prévention des blessures
25%
Mise en place tactique
20%

Événements récents

A participé à une réunion de recrutement 14j
A participé à une réunion de recrutement 21j
En formation continue 28j
A participé à une réunion de recrutement 28j
En formation continue 28j
En formation continue 28j
En formation continue 28j
En formation continue 35j

Suivi en cours

125
Joueur Club Statut Capacité Confiance Observé Dernière observation Dernier vote
Álvaro Veliez San Martín Actif 95 / 120 40% 1 04.01.2028 -
Ramiro Balbuena Nueva Chicago Actif 117 / 111 40% 1 04.01.2028 -
Matías Tagliamonte Racing Club Actif 121 / 110 40% 2 29.11.2026 -
Juan Luis Alfaro Banfield Actif 128 / 108 40% 2 29.11.2026 -
Matías Montero Madryn Actif 86 / 116 40% 1 29.11.2026 -
Massimo Sandi Sport Huancayo Actif 87 / 89 40% 2 27.11.2026 -
Matías Kabalín Ferro Carril Oeste Actif 106 / 93 40% 1 27.11.2026 -
Tobías Leiva Estudiantes Actif 108 / 127 40% 1 27.11.2026 -
Lorenzo Monti Temperley Actif 94 / 106 40% 1 24.11.2026 -
Lucas Ruiz Ferro Carril Oeste Actif 98 / 114 40% 1 23.11.2026 -
Juan Mendoza Güemes Actif 97 / 95 40% 1 22.11.2026 -
Martín García Atlanta Actif 115 / 101 40% 1 22.11.2026 -
Mauro Casoli Talleres Actif 102 / 109 40% 1 20.11.2026 -
José Rivas Gamboa Trujillanos Actif 93 / 97 40% 2 17.11.2026 -
Mauricio Márquez Caracas Actif 103 / 115 40% 3 16.11.2026 -
Agustín Gallo Tristán Suárez Refusé 105 / 96 40% 3 16.11.2026 Refuser
Matías Bazzi Talleres Actif 87 / 119 40% 1 15.11.2026 -
Damián Adín San Miguel Actif 102 / 124 40% 1 15.11.2026 -
Elías Ayala Madryn Actif 119 / 96 40% 1 15.11.2026 -
Germán Cervera Alvarado Actif 90 / 118 40% 1 15.11.2026 -
Cristian Núñez Huracán Actif 128 / 130 40% 1 12.11.2026 -
Jero Minnesota United FC Actif 91 / 123 40% 1 12.11.2026 -
Juan Esteban Franco Portland Timbers Actif 94 / 111 40% 1 12.11.2026 -
Joao Moris Palestino Actif 70 / 71 40% 1 11.11.2026 -
Juan Manuel Jorge Defensor Sporting Actif 92 / 96 40% 2 10.11.2026 -
Luis Corredor Estudiantes de Caracas Actif 81 / 92 40% 1 07.11.2026 -
Agustín Benítez Defensores Actif 119 / 129 40% 1 07.11.2026 -
Fernando Miranda Colegiales Actif 95 / 121 40% 1 04.11.2026 -
Novak Mićović LA Galaxy Actif 109 / 116 40% 1 04.11.2026 -
Diego Capdevila Cerro Actif 100 / 75 40% 1 02.11.2026 -
Ezequiel Almirón Estudiantes Actif 98 / 119 40% 2 01.11.2026 -
Kevin O'Toole New York City Actif 121 / 106 40% 1 31.10.2026 -
Joaquín Enrico San Telmo Actif 91 / 110 40% 1 31.10.2026 -
Denilson Ojeda Carabobo Actif 83 / 74 40% 2 29.10.2026 -
Yoimer Pacheco Union Magdalena Actif 87 / 79 40% 1 29.10.2026 -
Emmanuel Sabbi Vancouver Whitecaps Actif 126 / 124 40% 1 29.10.2026 -
Tomás Rojas Atlanta Actif 122 / 131 40% 1 28.10.2026 -
Diego Valencia Universidad Catolica Actif 102 / 113 40% 4 23.10.2026 -
Jeremy Ebobisse Los Angeles Football Club Actif 112 / 124 40% 1 23.10.2026 -
Nahuel Pezzini Arsenal Actif 101 / 126 40% 3 22.10.2026 -
David Agudelo Depor Actif 110 / 108 40% 1 22.10.2026 -
José Febres Trujillanos Actif 91 / 87 40% 1 19.10.2026 -
Richard Torales Guarani Actif 112 / 112 40% 1 18.10.2026 -
Julián Cosi Madryn Actif 108 / 104 40% 1 18.10.2026 -
Justin Haak LA Galaxy Actif 123 / 89 40% 1 18.10.2026 -
Fabricio Hass Central Norte Actif 121 / 118 40% 1 17.10.2026 -
Iván Tapia Barracas Central Actif 113 / 112 40% 1 16.10.2026 -
Leonard Costa Independiente Rivadavia Actif 128 / 122 40% 1 11.10.2026 -
Juan José Cardozo Argentinos Juniors Actif 125 / 128 40% 1 10.10.2026 -
Gonzalo Mottes Chacarita Juniors Actif 111 / 117 40% 1 08.10.2026 -
Emeka Eneli Real Salt Lake Actif 126 / 91 40% 1 08.10.2026 -
Francisco Castillo Llaneros Actif 91 / 116 40% 1 07.10.2026 -
Piero Magallanes Sport Huancayo Actif 81 / 89 40% 2 04.10.2026 -
Marco Miori Alvarado Actif 95 / 94 40% 1 04.10.2026 -
Facundo Vila Estudiantes Actif 83 / 109 40% 1 04.10.2026 -
Fernando Hernández St. Louis CITY SC Actif 82 / 86 40% 1 02.10.2026 -
Jorge Graterol Deportivo Lara Actif 95 / 101 40% 1 02.10.2026 -
Juan Ignacio Méndez Instituto Actif 109 / 135 40% 1 02.10.2026 -
Luis Gonzalez Atletico Venezuela Actif 98 / 125 40% 1 02.10.2026 -
Santiago Apa All Boys Actif 118 / 117 40% 1 01.10.2026 -
Elías Villar Nacional Actif 84 / 78 40% 1 29.09.2026 -
Matías Giménez Rojas Argentinos Juniors Actif 108 / 136 40% 2 28.09.2026 -
Mathías de Ritis San Lorenzo Actif 102 / 113 40% 1 24.09.2026 -
Pablo Fernández Sol de America Actif 96 / 112 40% 2 23.09.2026 -
Cristian Carbajal Alianza Lima Actif 126 / 100 40% 1 23.09.2026 -
Matías Samaniego Talleres Actif 117 / 110 40% 1 22.09.2026 -
José Hernández Queretaro Actif 136 / 127 40% 1 20.09.2026 -
Gastón Verón Argentinos Juniors Actif 136 / 136 40% 1 19.09.2026 -
Agustín Módica Gimnasia y Esgrima Actif 105 / 103 40% 1 19.09.2026 -
Agustín Rodríguez Colon Actif 102 / 96 40% 1 17.09.2026 -
Santiago Guzmán Wanderers Actif 85 / 102 40% 1 17.09.2026 -
Agustín Pérez Deportivo Tachira Actif 99 / 96 40% 1 16.09.2026 -
Johan Madrid Sporting Cristal Actif 99 / 105 40% 1 16.09.2026 -
Renzo Reynaga Patronato Actif 117 / 100 40% 1 16.09.2026 -
Diego Barbosa Toluca Actif 137 / 144 40% 1 14.09.2026 -
Brian Calderara Chacarita Juniors Actif 123 / 110 40% 1 14.09.2026 -
Owen Falconis Cerrito Actif 113 / 103 40% 1 13.09.2026 -
Vitinho River Plate Actif 87 / 77 40% 1 13.09.2026 -
Juan Camilo Loaiza Llaneros Actif 85 / 108 40% 1 12.09.2026 -
Andrés Samurio Tacuarembo Actif 99 / 92 40% 1 12.09.2026 -
David Salazar Santiago Wanderers Actif 75 / 81 40% 1 11.09.2026 -
Randall Rodríguez River Plate Actif 117 / 119 40% 1 09.09.2026 -
Duvan Medina Cortulua Actif 91 / 107 40% 1 09.09.2026 -
Daniel Rivera Junior Actif 111 / 105 40% 1 06.09.2026 -
Alexis Gutiérrez Club America Actif 146 / 149 40% 1 06.09.2026 -
Gustavo Rodriguez Valledupar Actif 99 / 92 40% 1 05.09.2026 -
Manuel Tasso New York City Actif 116 / 77 40% 1 05.09.2026 -
Gonzalo Siri Argentinos Juniors Actif 116 / 91 40% 1 04.09.2026 -
Ricardo Bettocchi UTC Actif 79 / 93 40% 1 04.09.2026 -
Franco Pérez Boston River Actif 91 / 113 40% 1 04.09.2026 -
Nahuel Sena Cerro Actif 112 / 101 40% 2 03.09.2026 -
Luciano Peraggini Maipú Actif 89 / 118 40% 1 02.09.2026 -
Emiliano Bermúdez Oriental Actif 79 / 98 40% 2 01.09.2026 -
Augusto Berrondo Tristán Suárez Actif 97 / 122 40% 1 01.09.2026 -
Luciano Arriagada Huachipato Actif 109 / 118 40% 1 01.09.2026 -
Bruno Hernández Cerro Largo Actif 105 / 113 40% 1 31.08.2026 -
Maurice Malone Minnesota United FC Actif 143 / 99 40% 1 31.08.2026 -
Bianneider Tamayo Universidad de Chile Actif 114 / 98 40% 1 29.08.2026 -
Efraín Navarro Once Caldas Actif 104 / 103 40% 1 28.08.2026 -
Manuel Núñez Tacuarembo Actif 71 / 80 40% 1 28.08.2026 -
Aldo Pérez Guarani Actif 115 / 123 40% 1 27.08.2026 -
Amaury García Cruz Azul Actif 75 / 72 40% 1 23.08.2026 -
Marber Suárez Zulia Actif 96 / 91 40% 1 23.08.2026 -
Nicolás Leites Artigas Actif 75 / 92 40% 1 22.08.2026 -
Leonardo Gómez Valledupar Actif 105 / 91 40% 1 21.08.2026 -
Ezequiel Busquets Montevideo City Torque Actif 94 / 112 40% 2 19.08.2026 -
Martín Ginzo Deportivo Maldonado Actif 100 / 107 40% 1 19.08.2026 -
Nahuel Gómez Oriental Actif 92 / 80 40% 1 18.08.2026 -
Facundo Borges Central Espanol Actif 101 / 81 40% 1 18.08.2026 -
Santiago Aguilar Deportivo Pereira Actif 94 / 110 40% 1 18.08.2026 -
Marcus Vinicius Deportivo Pereira Actif 103 / 124 40% 1 16.08.2026 -
Nahuel Suárez La Luz Actif 89 / 116 40% 1 15.08.2026 -
Emiliano Mozzone Deportivo Maldonado Actif 100 / 117 40% 1 13.08.2026 -
Brian González Atenas Actif 99 / 85 40% 1 13.08.2026 -
Andrés Micolta Pachuca Actif 110 / 127 40% 1 10.08.2026 -
Didier Palacios Envigado Actif 99 / 120 40% 1 10.08.2026 -
Guillermo Larios Alianza Atletico Actif 95 / 81 40% 1 10.08.2026 -
Juan González River Plate Actif 89 / 87 40% 1 09.08.2026 -
Bruno Antúnez Boston River Actif 112 / 108 40% 1 07.08.2026 -
Cristián Mosquera Bogota Actif 114 / 100 40% 1 04.08.2026 -
Francisco Sagardia Rampla Juniors Actif 90 / 106 40% 1 03.08.2026 -
Jimmy Evans Universidad Catolica Actif 96 / 117 40% 1 03.08.2026 -
Jesús Rivas Pumas UNAM Actif 134 / 85 40% 1 03.08.2026 -
Guillermo Gandolfo Central Espanol Actif 113 / 87 40% 1 03.08.2026 -
Nicolás Forastiero Deportivo Maldonado Actif 88 / 105 40% 1 01.08.2026 -